TimeCST,TemperatureF,Dew PointF,Humidity,Sea Level PressureIn,VisibilityMPH,Wind Direction,Wind SpeedMPH,Gust SpeedMPH,PrecipitationIn,Events,Conditions,WindDirDegrees,DateUTC
12:53 AM,55.0,54.0,96,29.91,0.2,SE,3.5,-,N/A,Fog,Fog,130,2012-12-07 06:53:00
1:53 AM,55.9,55.0,97,29.90,0.5,Calm,Calm,-,N/A,Fog,Fog,0,2012-12-07 07:53:00
2:44 AM,55.4,55.4,100,29.91,0.2,Calm,Calm,-,N/A,Fog,Fog,0,2012-12-07 08:44:00
2:53 AM,55.9,54.0,93,29.91,0.2,Calm,Calm,-,N/A,Fog,Fog,0,2012-12-07 08:53:00
3:53 AM,55.0,54.0,96,29.89,0.2,Calm,Calm,-,N/A,Fog,Fog,0,2012-12-07 09:53:00
4:53 AM,55.0,54.0,96,29.90,0.2,Calm,Calm,-,0.00,Fog,Fog,0,2012-12-07 10:53:00
5:53 AM,55.0,54.0,96,29.89,0.2,SSE,3.5,-,N/A,Fog,Fog,150,2012-12-07 11:53:00
6:53 AM,55.9,55.0,97,29.89,0.2,SSW,3.5,-,N/A,Fog,Fog,210,2012-12-07 12:53:00
7:53 AM,55.9,55.0,97,29.90,0.2,SSW,4.6,-,N/A,Fog,Fog,210,2012-12-07 13:53:00
8:40 AM,57.2,55.4,94,29.90,0.5,SSW,6.9,-,N/A,Fog,Fog,210,2012-12-07 14:40:00
8:53 AM,57.9,55.9,93,29.90,1.5,SSW,8.1,-,N/A,,Overcast,200,2012-12-07 14:53:00
9:01 AM,57.2,55.4,94,29.90,2.5,SSW,6.9,-,N/A,,Overcast,200,2012-12-07 15:01:00
9:14 AM,57.2,55.4,94,29.90,3.0,SW,8.1,-,N/A,,Overcast,220,2012-12-07 15:14:00
9:26 AM,57.2,55.4,94,29.90,5.0,WSW,6.9,-,N/A,,Mostly Cloudy,240,2012-12-07 15:26:00
9:38 AM,59.0,55.4,88,29.90,6.0,SSW,8.1,-,N/A,,Scattered Clouds,210,2012-12-07 15:38:00
9:53 AM,60.1,55.9,86,29.90,8.0,SSW,8.1,-,N/A,,Partly Cloudy,210,2012-12-07 15:53:00
10:42 AM,60.8,55.4,82,29.90,10.0,SSW,10.4,-,N/A,,Mostly Cloudy,210,2012-12-07 16:42:00
10:53 AM,62.1,55.0,78,29.89,10.0,SSW,9.2,-,N/A,,Mostly Cloudy,210,2012-12-07 16:53:00
11:01 AM,60.8,53.6,77,29.89,10.0,SW,9.2,-,N/A,,Scattered Clouds,220,2012-12-07 17:01:00
11:53 AM,64.0,54.0,70,29.86,10.0,SSW,10.4,-,N/A,,Scattered Clouds,200,2012-12-07 17:53:00
12:53 PM,64.0,52.0,65,29.84,10.0,South,11.5,-,N/A,,Partly Cloudy,190,2012-12-07 18:53:00
1:53 PM,64.9,52.0,63,29.82,10.0,SSW,12.7,-,N/A,,Partly Cloudy,210,2012-12-07 19:53:00
2:53 PM,64.0,52.0,65,29.82,10.0,SSW,9.2,-,N/A,,Partly Cloudy,210,2012-12-07 20:53:00
3:53 PM,63.0,51.1,65,29.83,10.0,South,9.2,-,N/A,,Clear,180,2012-12-07 21:53:00
4:53 PM,61.0,52.0,72,29.84,10.0,SSW,4.6,-,N/A,,Mostly Cloudy,200,2012-12-07 22:53:00
5:53 PM,61.0,53.1,75,29.85,10.0,South,5.8,-,N/A,,Overcast,180,2012-12-07 23:53:00
7:53 PM,59.0,54.0,83,29.85,9.0,SSW,4.6,-,N/A,,Overcast,210,2012-12-08 01:53:00
8:53 PM,60.1,53.1,78,29.85,10.0,South,9.2,-,N/A,,Scattered Clouds,190,2012-12-08 02:53:00
9:53 PM,59.0,53.1,81,29.85,9.0,SW,4.6,-,N/A,,Overcast,220,2012-12-08 03:53:00
10:53 PM,55.9,52.0,87,29.86,7.0,SW,4.6,-,N/A,,Partly Cloudy,220,2012-12-08 04:53:00
11:53 PM,57.9,54.0,87,29.85,7.0,SSW,9.2,-,N/A,,Overcast,210,2012-12-08 05:53:00